Regional Weather Roundup
Issued by NWS Albany, NY

Home | Current Version | Previous Version | Graphics & Text | Print | Product List | Glossary On
Versions: 1 2 3 4 5 6 7 8 9 10 11 12 13 14 15 16 17 18 19 20 21 22 23 24 25 26 27 28 29 30 31 32 33 34 35 36 37 38 39 40 41 42 43 44 45 46 47 48 49 50
000
ASUS41 KALY 201410
RWRALY

NEW YORK STATE HOURLY WEATHER ROUNDUP
NATIONAL WEATHER SERVICE ALBANY NY
1000 AM EDT WED AUG 20 2014

NOTE: "FAIR" INDICATES FEW OR NO CLOUDS BELOW 12,000 FEET WITH NO
SIGNIFICANT WEATHER AND/OR NO OBSTRUCTIONS TO VISIBILITY.

NYZ032-033-038>043-046>054-057>066-NYZ062>081-201500-
EAST


CITY           SKY/WX    TMP DP  RH WIND       PRES   REMARKS
ALBANY         PTSUNNY   69  60  73 S3        30.00R
GLENS FALLS    MOSUNNY   68  56  65 CALM      30.00R
POUGHKEEPSIE   PTSUNNY   75  64  68 SW5       29.99R
NEWBURGH       PTSUNNY   73  66  78 VRB6      30.02R
MONTGOMERY     CLOUDY    72  64  76 SW3       30.01R
WHITE PLAINS   MOSUNNY   73  63  70 CALM      30.01R
ISLIP          MOSUNNY   75  58  55 CALM      30.00R
NEW YORK CITY  MOSUNNY   76  64  66 NE8       30.00R
CENTRAL PARK   MOSUNNY   76  57  51 VRB3      30.03R
$$

NYZ005>009-017-018-044>046-055-056-201500-
CENTRAL


CITY           SKY/WX    TMP DP  RH WIND       PRES   REMARKS
FULTON         PTSUNNY   71  64  78 VRB5      29.93R
SYRACUSE       CLOUDY    75  66  73 E3        29.93R
ROME           PTSUNNY   72  62  71 SE10      29.96S
ELMIRA         CLOUDY    75  69  81 VRB6G62   29.94S
BINGHAMTON     CLOUDY    69  64  84 VRB7      30.00R
MONTICELLO     PTSUNNY   68  63  83 S5        30.04S
$$

NYZ026>034-041>043-201500-
NORTH


CITY           SKY/WX    TMP DP  RH WIND       PRES   REMARKS
WATERTOWN      MOSUNNY   76  63  64 S6        29.93R
FORT DRUM      NOT AVBL
MASSENA        SUNNY     70  60  70 E6        29.97R
SARANAC LAKE   SUNNY     68  56  65 CALM      29.99R
PLATTSBURGH    SUNNY     65  58  78 SE8       29.99R
$$

NYZ001>004-010>016-019>021-201500-
WEST


CITY           SKY/WX    TMP DP  RH WIND       PRES   REMARKS
NIAGARA FALLS  CLOUDY    71  64  78 SW5       29.90R
BUFFALO        CLOUDY    72  61  68 S5        29.91R
DUNKIRK        CLOUDY    70  63  78 SW7       29.91R
JAMESTOWN      CLOUDY    64  61  88 S6        29.95S
WELLSVILLE     CLOUDY    68  65  90 S3        30.00R
ROCHESTER      CLOUDY    72  66  81 CALM      29.92R
PENN YAN       PTSUNNY   74  67  78 S10       29.95R
$$

             KEY
       WCI = WIND CHILL INDEX
       VSB = VISIBILITY
       HX  = HEAT INDEX
$$



USA.gov is the U.S. government's official web portal to all federal, state and local government web resources and services.